Regional Weather Roundup
Issued by NWS

Home | Current Version | Previous Version | Graphics & Text | Print | Product List | Glossary On
Versions: 1 2 3 4 5 6 7 8 9 10 11 12 13 14 15 16 17 18 19 20 21 22 23 24 25 26 27 28 29 30 31 32 33 34 35 36 37 38 39 40 41 42 43 44 45 46 47 48 49 50
000
ASUS43 KLOT 242206
RWRIL

ILLINOIS REGIONAL WEATHER ROUNDUP
NATIONAL WEATHER SERVICE CHICAGO/ROMEOVILLE IL
500 PM CDT THU APR 24 2014

NOTE: "FAIR" INDICATES FEW OR NO CLOUDS BELOW 12,000 FEET WITH NO
SIGNIFICANT WEATHER AND/OR OBSTRUCTIONS TO VISIBILITY.

* THESE STATIONS ARE NOT UNDER NWS QUALITY CONTROL. THEY ALSO MAY NOT
  REPORT WEATHER SUCH AS PRECIPITATION OR FOG.

ILZ001-002-007-009-015-016-024-242300-
NORTHWEST ILLINOIS

CITY           SKY/WX    TMP DP  RH WIND       PRES   REMARKS
MOLINE         CLOUDY    60  49  66 SW3       29.66R
STERLING*      CLOUDY    57  52  82 S3        29.67R
SAVANNA*       CLOUDY    57  48  73 SE6       29.66F
$$

ILZ003-004-008-010-011-017-018-242300-
NORTH CENTRAL ILLINOIS

CITY           SKY/WX    TMP DP  RH WIND       PRES   REMARKS
ROCKFORD       LGT RAIN  63  40  42 SE13      29.70F
FREEPORT*      CLOUDY    51  49  92 N3        29.69F
ROCHELLE*      CLOUDY    65  36  33 SE20      29.67F
DE KALB*       CLOUDY    64  36  35 SE22G28   29.71F
PERU*          CLOUDY    70  38  31 S7G26     29.66F
$$

ILZ005-006-012>014-019>023-242300-
NORTHEAST ILLINOIS

CITY           SKY/WX    TMP DP  RH WIND       PRES   REMARKS
CHICAGO-OHARE  CLOUDY    64  30  27 SE24      29.74F
CHICAGO-MIDWAY CLOUDY    63  30  28 SE15G35   29.74F
AURORA         CLOUDY    65  36  34 SE23G30   29.71F
LANSING*       CLOUDY    61  28  28 SE17G26   29.75F
JOLIET*        CLOUDY    64  33  31 SE18G26   29.73F
WAUKEGAN       CLOUDY    52  30  43 SE16      29.76F
DUPAGE AIRPORT CLOUDY    64  33  31 SE21G28   29.72F
KANKAKEE*      CLOUDY    64  37  36 SE17G24   29.73F
WHEELING       CLOUDY    63  31  30 SE18G25   29.76F
MORRIS*        CLOUDY    67  29  23 SE14      29.71F
NORTHERLY ISL    N/A     54  39  57 SE14        N/A
$$

LMZ740>746-242300-
SOUTHERN LAKE MICHIGAN

STATION/POSITION SKY/WX   TEMP    WIND        PRES    VSBY  WAVE
                          AIR SEA DIR/SP/G                  HT/PER
                          (F)     (DEG/KT/KT) (MB)    (MI)  (FT/S)
WAUKEGAN HARBOR            47     120/  8/ 12 1010.2R
HARRISON CRIB              54     140/ 27/ 31   N/A
BURNHAM HARBOR             55     130/ 16/ 16   N/A
CALUMET HARBOR             61     120/ 13/ 20 1008.1F
MICHIGAN CITY              60     120/ 21/ 26   N/A
$$

ILZ025>027-034>036-040-047-049-050-058-095>099-242300-
WEST-CENTRAL ILLINOIS

CITY           SKY/WX    TMP DP  RH WIND       PRES   REMARKS
QUINCY         CLOUDY    68  48  48 SE8       29.58F
GALESBURG*     RAIN      58  52  81 E5        29.63S
MACOMB*        LGT RAIN  64  51  62 SE8       29.64S
JACKSONVILLE*  CLOUDY    73  44  34 SE15      29.62F
PITTSFIELD*    LGT RAIN  75  45  34 SE8       29.60F
$$

ILZ028>032-037-038-041>044-048-051>054-059>061-242300-
CENTRAL ILLINOIS

CITY           SKY/WX    TMP DP  RH WIND       PRES   REMARKS
PONTIAC        CLOUDY    73  36  25 SE18G26   29.69F
BLOOMINGTON    CLOUDY    70  40  33 S21       29.68F
DECATUR        CLOUDY    73  42  32 SE21G26   29.67F
PEORIA         CLOUDY    71  44  37 S12       29.63F
LACON*         CLOUDY    71  41  34 S10G17    29.64F
LINCOLN*       CLOUDY    74  41  30 S16G22    29.64F
SPRINGFIELD    CLOUDY    75  44  33 S14       29.64F
TAYLORVILLE    CLOUDY    72  43  35 SE14G22   29.65F
$$

ILZ033-039-045-046-055>057-062-063-242300-
EAST-CENTRAL ILLINOIS

CITY           SKY/WX    TMP DP  RH WIND       PRES   REMARKS
CHAMPAIGN      CLOUDY    72  37  28 SE23      29.70F
RANTOUL*       CLOUDY    72  32  23 SE20G26   29.71F
MATTOON        CLOUDY    72  40  31 SE21G32   29.70F
PARIS*         PTSUNNY   71  38  30 SE16G23   29.74F
$$

ILZ079-100>102-242300-
SOUTHWEST ILLINOIS

CITY           SKY/WX    TMP DP  RH WIND       PRES   REMARKS
ALTON          PTSUNNY   77  48  36 S17G23    29.63F
BELLEVILLE     CLOUDY    77  50  39 S20G26    29.63F
CAHOKIA*       PTSUNNY   76  48  37 S13G24    29.63R
SPARTA*        CLOUDY    73  50  43 S16       29.66S
$$

ILZ064>066-069>071-074>076-080>082-084>086-088>090-092>094-242300-
SOUTH-CENTRAL ILLINOIS

CITY           SKY/WX    TMP DP  RH WIND       PRES   REMARKS
CARBONDALE     CLOUDY    75  48  38 S20G28    29.65F
CAIRO*         CLOUDY    80  48  32 S17G24    29.68F
MARION         PTSUNNY   77  46  33 S17       29.68F
MT. VERNON     PTSUNNY   77  46  33 SE16G24   29.69F
CENTRALIA*     PTSUNNY   77  44  30 SE16G23   29.66F
SALEM*         PTSUNNY   77  47  33 SE9G18    29.67F
METROPOLIS*    PTSUNNY   78  40  26 SE9G18    29.70F
$$

ILZ067-068-072-073-078-083-087-091-242300-
SOUTHEAST ILLINOIS

CITY           SKY/WX    TMP DP  RH WIND       PRES   REMARKS
FLORA*         PTSUNNY   74  40  29 S16       29.71F
FAIRFIELD*     CLOUDY    75  45  33 SE10      29.70F
HARRISBURG*    CLOUDY    77  45  32 S14       29.72F
ROBINSON*      PTSUNNY   76  42  30 S14       29.75F
CARMI*         PTSUNNY   77  43  30 SE15G22   29.72F
$$

ABBREVIATIONS USED IN REMARKS
   TC - TEMPERATURE IN CELSIUS
  WCI - WIND CHILL INDEX
   HX - HEAT INDEX
  VSB - VISIBILITY
$$




USA.gov is the U.S. government's official web portal to all federal, state and local government web resources and services.